Location: Kuffner-Sternwarte
(48.2130°N, 16.2960°E)
Time: 10:51:14
(UTC+02:00)

COROT - Pass Details

Date: 18 June 2018
Orbit: 599 x 890 km, 90.0° (Epoch: 19 August)

Event Time Altitude Azimuth Distance (km) Brightness Sun altitude
Rises 21:33:29 0° 350° (N) 3,474 10.4 -5.2°
Reaches altitude 10° 21:36:28 10° 335° (NNW) 2,552 10.1 -5.6°
Maximum altitude 21:40:34 20° 289° (WNW) 1,923 9.1 -6.1°
Drops below altitude 10° 21:44:40 10° 244° (WSW) 2,551 8.9 -6.5°
Sets 21:47:40 0° 229° (SW) 3,471 9.4 -6.9°
